| time (UTC) | temp F | wind direction | speed knots | gust knots | rain 1hr in | rain 24hr in | rain mn in | humidity % | barometer mb |
| 20260503200216 | 60 | 313 | 2.6 | 4.3 | 0.00 | 0.00 | 0.00 | 66 | 1017.6 |
| 20260503195215 | 60 | 326 | 4.3 | 7.0 | 0.00 | 0.00 | 0.00 | 65 | 1017.5 |
| 20260503194216 | 61 | 321 | 3.5 | 8.7 | 0.00 | 0.00 | 0.00 | 65 | 1017.3 |
| 20260503193236 | 61 | 339 | 3.5 | 6.1 | 0.00 | 0.00 | 0.00 | 64 | 1017.2 |
| 20260503192235 | 62 | 340 | 5.2 | 8.7 | 0.00 | 0.00 | 0.00 | 63 | 1017.1 |
| 20260503191216 | 62 | 342 | 4.3 | 8.7 | 0.00 | 0.00 | 0.00 | 62 | 1016.9 |
| 20260503190215 | 62 | 304 | 6.1 | 9.6 | 0.00 | 0.00 | 0.00 | 60 | 1016.8 |
| 20260503185216 | 63 | 328 | 5.2 | 13.0 | 0.00 | 0.00 | 0.00 | 59 | 1016.7 |
| 20260503184256 | 63 | 329 | 7.8 | 13.0 | 0.00 | 0.00 | 0.00 | 57 | 1016.7 |
| 20260503183215 | 63 | 323 | 5.2 | 13.0 | 0.00 | 0.00 | 0.00 | 56 | 1016.5 |
| 20260503182216 | 64 | 336 | 7.8 | 14.8 | 0.00 | 0.00 | 0.00 | 56 | 1016.5 |
| 20260503181236 | 64 | 324 | 6.1 | 11.3 | 0.00 | 0.00 | 0.00 | 55 | 1016.4 |
| 20260503180256 | 64 | 318 | 7.0 | 13.0 | 0.00 | 0.00 | 0.00 | 55 | 1016.4 |
| 20260503175216 | 64 | 309 | 7.0 | 15.6 | 0.00 | 0.00 | 0.00 | 55 | 1016.5 |
| 20260503174215 | 65 | 332 | 8.7 | 18.2 | 0.00 | 0.00 | 0.00 | 53 | 1016.5 |
| 20260503173235 | 65 | 333 | 8.7 | 16.5 | 0.00 | 0.00 | 0.00 | 52 | 1016.6 |
| 20260503172215 | 66 | 314 | 7.8 | 14.8 | 0.00 | 0.00 | 0.00 | 51 | 1016.5 |
| 20260503171215 | 66 | 295 | 4.3 | 10.4 | 0.00 | 0.00 | 0.00 | 50 | 1016.5 |
| 20260503170215 | 65 | 324 | 7.8 | 14.8 | 0.00 | 0.00 | 0.00 | 51 | 1016.5 |
| 20260503150216 | 67 | 295 | 8.7 | 13.9 | 0.00 | 0.00 | 0.00 | 54 | 1016.6 |
| 20260503140215 | 69 | 232 | 3.5 | 9.6 | 0.00 | 0.00 | 0.00 | 42 | 1016.7 |
| 20260503131215 | 68 | 258 | 1.7 | 3.5 | 0.00 | 0.00 | 0.00 | 47 | 1016.9 |
| 20260503130235 | 68 | 244 | 2.6 | 7.0 | 0.00 | 0.00 | 0.00 | 48 | 1016.9 |
| 20260503120215 | 67 | 267 | 4.3 | 8.7 | 0.00 | 0.00 | 0.00 | 50 | 1017.2 |
| 20260503110215 | 67 | 253 | 3.5 | 7.8 | 0.00 | 0.00 | 0.00 | 50 | 1017.6 |
| 20260503100215 | 65 | 113 | 2.6 | 5.2 | 0.00 | 0.01 | 0.00 | 59 | 1017.7 |
| 20260503090235 | 64 | 320 | 3.5 | 4.3 | 0.00 | 0.01 | 0.00 | 59 | 1017.7 |
| 20260503081215 | 65 | 290 | 0.9 | 3.5 | 0.00 | 0.01 | 0.00 | 63 | 1017.8 |
| 20260503080216 | 64 | 167 | 0.9 | 1.7 | 0.00 | 0.01 | 0.00 | 64 | 1017.8 |
| 20260503072215 | 60 | 251 | 1.7 | 3.5 | 0.00 | 0.01 | 0.00 | 76 | 1017.6 |
| 20260503071215 | 60 | 215 | 0.9 | 2.6 | 0.00 | 0.01 | 0.00 | 77 | 1017.6 |
| 20260503070216 | 59 | 243 | 2.6 | 4.3 | 0.00 | 0.01 | 0.00 | 77 | 1017.6 |
| 20260503060215 | 55 | 281 | 0.9 | 2.6 | 0.00 | 0.01 | 0.00 | 84 | 1017.3 |
| 20260503054215 | 55 | 278 | 2.6 | 4.3 | 0.00 | 0.01 | 0.00 | 84 | 1017.3 |
| 20260503053216 | 55 | 309 | 5.2 | 7.0 | 0.00 | 0.01 | 0.00 | 84 | 1017.2 |
| 20260503052216 | 55 | 302 | 4.3 | 5.2 | 0.00 | 0.01 | 0.00 | 83 | 1017.1 |
| 20260503051215 | 55 | 299 | 2.6 | 3.5 | 0.00 | 0.01 | 0.00 | 83 | 1017.2 |
| 20260503050215 | 55 | 295 | 2.6 | 3.5 | 0.00 | 0.01 | 0.00 | 83 | 1017.2 |
| 20260503045236 | 56 | 275 | 2.6 | 3.5 | 0.00 | 0.01 | 0.00 | 82 | 1017.1 |
| 20260503044215 | 56 | 267 | 3.5 | 5.2 | 0.00 | 0.01 | 0.00 | 82 | 1017.2 |
| 20260503043215 | 57 | 328 | 2.6 | 4.3 | 0.00 | 0.01 | 0.00 | 83 | 1017.2 |
| 20260503042215 | 56 | 253 | 1.7 | 2.6 | 0.00 | 0.01 | 0.00 | 82 | 1017.1 |
| 20260503041216 | 56 | 243 | 0.9 | 1.7 | 0.00 | 0.01 | 0.00 | 81 | 1017.1 |
| 20260503040215 | 56 | 276 | 2.6 | 3.5 | 0.00 | 0.01 | 0.00 | 82 | 1017.1 |
| 20260503035215 | 57 | 288 | 0.9 | 1.7 | 0.00 | 0.01 | 0.00 | 82 | 1017.0 |
| 20260503034215 | 57 | 303 | 1.7 | 2.6 | 0.00 | 0.01 | 0.00 | 81 | 1017.2 |
| 20260503033215 | 57 | 303 | 2.6 | 3.5 | 0.00 | 0.01 | 0.00 | 81 | 1017.3 |
| 20260503032216 | 57 | 299 | 0.9 | 1.7 | 0.00 | 0.01 | 0.00 | 81 | 1017.3 |
| 20260503031215 | 57 | 40 | 0.9 | 2.6 | 0.00 | 0.01 | 0.00 | 82 | 1017.3 |
| 20260503030216 | 58 | 2 | 0.9 | 3.5 | 0.00 | 0.01 | 0.00 | 81 | 1017.4 |
| 20260503025215 | 57 | 336 | 2.6 | 4.3 | 0.00 | 0.01 | 0.00 | 80 | 1017.3 |
| 20260503024215 | 58 | 119 | 0.9 | 1.7 | 0.00 | 0.01 | 0.00 | 81 | 1017.3 |
| 20260503023216 | 58 | 277 | 0.9 | 1.7 | 0.00 | 0.01 | 0.00 | 81 | 1017.3 |
| 20260503022215 | 58 | 247 | 0.9 | 1.7 | 0.00 | 0.01 | 0.00 | 81 | 1017.3 |
| 20260503021215 | 57 | 295 | 0.9 | 1.7 | 0.00 | 0.01 | 0.00 | 81 | 1017.4 |
| 20260503020215 | 58 | 339 | 0.9 | 2.6 | 0.00 | 0.01 | 0.00 | 80 | 1017.5 |
| 20260503015215 | 58 | 302 | 0.9 | 2.6 | 0.00 | 0.01 | 0.00 | 80 | 1017.5 |
| 20260503014215 | 58 | 299 | 0.9 | 2.6 | 0.00 | 0.01 | 0.00 | 81 | 1017.7 |
| 20260503013215 | 58 | 316 | 1.7 | 2.6 | 0.00 | 0.01 | 0.00 | 81 | 1017.8 |
| 20260503012215 | 57 | 337 | 3.5 | 4.3 | 0.00 | 0.01 | 0.00 | 80 | 1017.9 |
| 20260503011236 | 58 | 272 | 1.7 | 1.7 | 0.00 | 0.01 | 0.00 | 80 | 1017.9 |
| 20260503010215 | 58 | 291 | 0.9 | 1.7 | 0.00 | 0.01 | 0.00 | 81 | 1018.0 |
| 20260503005215 | 58 | 308 | 1.7 | 2.6 | 0.00 | 0.01 | 0.00 | 79 | 1018.0 |
| 20260503004215 | 59 | 270 | 1.7 | 2.6 | 0.00 | 0.01 | 0.00 | 78 | 1018.3 |
| 20260503003235 | 59 | 279 | 0.9 | 1.7 | 0.00 | 0.01 | 0.00 | 78 | 1018.3 |
| 20260503002236 | 59 | 278 | 0.9 | 1.7 | 0.00 | 0.01 | 0.00 | 79 | 1018.3 |
| 20260503001215 | 59 | 55 | 0.9 | 1.7 | 0.00 | 0.01 | 0.00 | 78 | 1018.4 |
| 20260503000215 | 60 | 67 | 0.9 | 1.7 | 0.00 | 0.01 | 0.00 | 77 | 1018.4 |
| 20260502235215 | 60 | 61 | 1.7 | 1.7 | 0.00 | 0.01 | 0.00 | 77 | 1018.5 |
| 20260502234235 | 60 | 323 | 0.9 | 2.6 | 0.00 | 0.01 | 0.00 | 77 | 1018.5 |
| 20260502233215 | 59 | 343 | 0.9 | 1.7 | 0.00 | 0.01 | 0.00 | 77 | 1018.6 |
| 20260502232215 | 60 | 259 | 0.9 | 2.6 | 0.00 | 0.01 | 0.00 | 76 | 1018.7 |
| 20260502231215 | 60 | 279 | 1.7 | 3.5 | 0.00 | 0.01 | 0.00 | 76 | 1018.7 |
| 20260502230215 | 60 | 228 | 1.7 | 3.5 | 0.00 | 0.01 | 0.00 | 75 | 1018.7 |
| 20260502225215 | 61 | 294 | 1.7 | 2.6 | 0.00 | 0.01 | 0.01 | 75 | 1018.7 |
| 20260502224215 | 61 | 249 | 3.5 | 5.2 | 0.00 | 0.01 | 0.01 | 75 | 1018.7 |
| 20260502223216 | 61 | 278 | 0.9 | 2.6 | 0.00 | 0.01 | 0.01 | 74 | 1018.7 |
| 20260502222216 | 61 | 272 | 0.9 | 2.6 | 0.00 | 0.01 | 0.01 | 75 | 1018.7 |
| 20260502221215 | 61 | 234 | 1.7 | 3.5 | 0.00 | 0.01 | 0.01 | 75 | 1018.9 |
| 20260502220216 | 61 | 261 | 2.6 | 5.2 | 0.00 | 0.01 | 0.01 | 74 | 1018.7 |
| 20260502215215 | 61 | 254 | 2.6 | 5.2 | 0.00 | 0.01 | 0.01 | 75 | 1018.9 |
| 20260502214216 | 62 | 279 | 3.5 | 4.3 | 0.00 | 0.01 | 0.01 | 75 | 1018.9 |
| 20260502213218 | 62 | 264 | 3.5 | 5.2 | 0.00 | 0.01 | 0.01 | 74 | 1019.0 |
| 20260502212235 | 62 | 255 | 3.5 | 6.1 | 0.00 | 0.01 | 0.01 | 74 | 1018.9 |
| 20260502211215 | 62 | 256 | 3.5 | 5.2 | 0.00 | 0.01 | 0.01 | 73 | 1018.9 |
| 20260502210235 | 62 | 254 | 2.6 | 4.3 | 0.00 | 0.01 | 0.01 | 72 | 1018.9 |
| 20260502204235 | 63 | 268 | 2.6 | 5.2 | 0.00 | 0.01 | 0.01 | 70 | 1018.6 |
| 20260502203215 | 63 | 277 | 1.7 | 4.3 | 0.00 | 0.01 | 0.01 | 69 | 1018.4 |
| 20260502202215 | 63 | 254 | 2.6 | 6.1 | 0.00 | 0.01 | 0.01 | 69 | 1018.2 |
| 20260502201215 | 64 | 261 | 4.3 | 7.0 | 0.00 | 0.01 | 0.01 | 69 | 1018.2 |